,,Stat6,,Stat2,,Stat8,,Stat9,,Stat10,,Wind1,,Wind1,
time,status,PA1M_AVG,status,PR1M_SUM,status,RH1M_AVG,status,SR1M_AVG,status,TA1M_AVG,status,W1dAve1m,status,W1sAve1m,
2004-04-16, 00:00:00,VALID,919.241,VALID,0,VALID,100,VALID,0,VALID,19.2678,VALID,62,VALID,0.872113,
2004-04-16, 00:01:00,VALID,919.246,VALID,0,VALID,100,VALID,0,VALID,19.2578,VALID,74,VALID,0.8752,
2004-04-16, 00:02:00,VALID,919.251,VALID,0,VALID,100,VALID,-0.0339617,VALID,19.2705,VALID,99,VALID,0.762005,
2004-04-16, 00:03:00,VALID,919.247,VALID,0,VALID,100,VALID,-0.101885,VALID,19.31,VALID,108,VALID,0.958519,
2004-04-16, 00:04:00,VALID,919.246,VALID,0,VALID,100,VALID,-0.101885,VALID,19.3654,VALID,111,VALID,1.04059,
2004-04-16, 00:05:00,VALID,919.242,VALID,0,VALID,100,VALID,-0.101885,VALID,19.4009,VALID,124,VALID,1.14948,
2004-04-16, 00:06:00,VALID,919.246,VALID,0,VALID,100,VALID,-0.101885,VALID,19.42,VALID,130,VALID,1.38681,
2004-04-16, 00:07:00,VALID,919.258,VALID,0,VALID,100,VALID,-0.118866,VALID,19.4297,VALID,136,VALID,1.30393,
2004-04-16, 00:08:00,VALID,919.259,VALID,0,VALID,100,VALID,-0.101885,VALID,19.4491,VALID,134,VALID,1.56146,
2004-04-16, 00:09:00,VALID,919.266,VALID,0,VALID,100,VALID,-0.101885,VALID,19.4526,VALID,136,VALID,1.15187,
2004-04-16, 00:10:00,VALID,919.264,VALID,0,VALID,100,VALID,-0.0849042,VALID,19.459,VALID,129,VALID,1.19511,
2004-04-16, 00:11:00,VALID,919.263,VALID,0,VALID,100,VALID,-0.101885,VALID,19.4618,VALID,132,VALID,1.03457,
2004-04-16, 00:12:00,VALID,919.243,VALID,0,VALID,100,VALID,-0.0849042,VALID,19.4749,VALID,133,VALID,1.11446,
2004-04-16, 00:13:00,VALID,919.219,VALID,0,VALID,100,VALID,-0.101885,VALID,19.4784,VALID,133,VALID,1.32158,
2004-04-16, 00:14:00,VALID,919.207,VALID,0,VALID,100,VALID,-0.118866,VALID,19.4849,VALID,133,VALID,1.33403,
2004-04-16, 00:15:00,VALID,919.19,VALID,0,VALID,100,VALID,-0.0679233,VALID,19.4747,VALID,139,VALID,1.26719,
2004-04-16, 00:16:00,VALID,919.165,VALID,0,VALID,100,VALID,-0.0679233,VALID,19.4618,VALID,133,VALID,1.05642,
2004-04-16, 00:17:00,VALID,919.15,VALID,0,VALID,100,VALID,-0.0339617,VALID,19.4451,VALID,136,VALID,1.16246,
2004-04-16, 00:18:00,VALID,919.135,VALID,0,VALID,100,VALID,0,VALID,19.4412,VALID,130,VALID,1.25,
2004-04-16, 00:19:00,VALID,919.109,VALID,0,VALID,100,VALID,-0.0169808,VALID,19.4538,VALID,126,VALID,1.3109,
2004-04-16, 00:20:00,VALID,919.086,VALID,0,VALID,100,VALID,0,VALID,19.4608,VALID,130,VALID,0.981357,
2004-04-16, 00:21:00,VALID,919.07,VALID,0,VALID,100,VALID,0,VALID,19.4603,VALID,118,VALID,0.793924,
2004-04-16, 00:22:00,VALID,919.056,VALID,0,VALID,100,VALID,-0.0339617,VALID,19.4573,VALID,116,VALID,0.605382,
2004-04-16, 00:23:00,VALID,919.041,VALID,0,VALID,100,VALID,0,VALID,19.4578,VALID,108,VALID,0.883185,
2004-04-16, 00:24:00,VALID,919.031,VALID,0,VALID,100,VALID,-0.0169808,VALID,19.4831,VALID,109,VALID,0.864515,
2004-04-16, 00:25:00,VALID,919.01,VALID,0,VALID,100,VALID,0,VALID,19.4836,VALID,123,VALID,1.07322,
2004-04-16, 00:26:00,VALID,919.006,VALID,0,VALID,100,VALID,0,VALID,19.4739,VALID,131,VALID,1.38906,
2004-04-16, 00:27:00,VALID,918.997,VALID,0,VALID,100,VALID,0.0169808,VALID,19.4769,VALID,131,VALID,1.78944,
2004-04-16, 00:28:00,VALID,918.997,VALID,0,VALID,100,VALID,0,VALID,19.4571,VALID,120,VALID,1.93223,
2004-04-16, 00:29:00,VALID,918.989,VALID,0,VALID,100,VALID,0,VALID,19.4739,VALID,120,VALID,1.41648,
2004-04-16, 00:30:00,VALID,918.975,VALID,0,VALID,100,VALID,-0.0169808,VALID,19.4511,VALID,112,VALID,1.09687,
2004-04-16, 00:31:00,VALID,918.958,VALID,0,VALID,100,VALID,-0.0169808,VALID,19.4248,VALID,96,VALID,0.971875,
2004-04-16, 00:32:00,VALID,918.931,VALID,0,VALID,100,VALID,-0.0169808,VALID,19.4161,VALID,96,VALID,1.23363,
2004-04-16, 00:33:00,VALID,918.916,VALID,0,VALID,100,VALID,0,VALID,19.3997,VALID,72,VALID,0.882133,
2004-04-16, 00:34:00,VALID,918.866,VALID,0,VALID,100,VALID,0,VALID,19.3893,VALID,75,VALID,0.771909,
2004-04-16, 00:35:00,VALID,918.823,VALID,0,VALID,100,VALID,0,VALID,19.3766,VALID,71,VALID,0.769531,
2004-04-16, 00:36:00,VALID,918.783,VALID,0,VALID,100,VALID,0,VALID,19.39,VALID,73,VALID,0.925174,
2004-04-16, 00:37:00,VALID,918.723,VALID,0,VALID,100,VALID,0,VALID,19.3801,VALID,73,VALID,0.683984,
2004-04-16, 00:38:00,VALID,918.688,VALID,0,VALID,100,VALID,-0.0169808,VALID,19.3577,VALID,68,VALID,0.765997,
2004-04-16, 00:39:00,VALID,918.658,VALID,0,VALID,100,VALID,-0.0169808,VALID,19.3381,VALID,58,VALID,1.01145,
2004-04-16, 00:40:00,VALID,918.645,VALID,0,VALID,100,VALID,-0.0169808,VALID,19.3217,VALID,70,VALID,0.986793,
2004-04-16, 00:41:00,VALID,918.629,VALID,0,VALID,100,VALID,0,VALID,19.3381,VALID,92,VALID,0.904204,
2004-04-16, 00:42:00,VALID,918.62,VALID,0,VALID,100,VALID,0,VALID,19.3572,VALID,109,VALID,0.957667,
2004-04-16, 00:43:00,VALID,918.603,VALID,0,VALID,100,VALID,0,VALID,19.3674,VALID,122,VALID,1.04924,
2004-04-16, 00:44:00,VALID,918.593,VALID,0,VALID,100,VALID,0,VALID,19.3572,VALID,124,VALID,0.878162,
2004-04-16, 00:45:00,VALID,918.571,VALID,0,VALID,100,VALID,-0.0169808,VALID,19.3537,VALID,116,VALID,0.890807,
2004-04-16, 00:46:00,VALID,918.555,VALID,0,VALID,100,VALID,0.0169808,VALID,19.3766,VALID,112,VALID,0.599479,
2004-04-16, 00:47:00,VALID,918.536,VALID,0,VALID,100,VALID,0,VALID,19.3833,VALID,112,VALID,0.171342,
2004-04-16, 00:48:00,VALID,918.524,VALID,0,VALID,100,VALID,0,VALID,19.3614,VALID,112,VALID,0.103743,
2004-04-16, 00:49:00,VALID,918.52,VALID,0,VALID,100,VALID,-0.0169808,VALID,19.2961,VALID,112,VALID,0,
2004-04-16, 00:50:00,VALID,918.517,VALID,0,VALID,100,VALID,-0.0169808,VALID,19.27,VALID,112,VALID,0.20585,
2004-04-16, 00:51:00,VALID,918.503,VALID,0,VALID,100,VALID,0,VALID,19.2834,VALID,236,VALID,0.627907,
2004-04-16, 00:52:00,VALID,918.486,VALID,0,VALID,100,VALID,0,VALID,19.3028,VALID,239,VALID,0.512767,
2004-04-16, 00:53:00,VALID,918.477,VALID,0,VALID,100,VALID,0,VALID,19.3028,VALID,239,VALID,0.268229,
2004-04-16, 00:54:00,VALID,918.468,VALID,0,VALID,100,VALID,-0.0339617,VALID,19.2896,VALID,239,VALID,0.0911458,
2004-04-16, 00:55:00,VALID,918.446,VALID,0,VALID,100,VALID,0,VALID,19.2765,VALID,223,VALID,0.338889,
2004-04-16, 00:56:00,VALID,918.428,VALID,0,VALID,100,VALID,0,VALID,19.2479,VALID,170,VALID,0.541243,
2004-04-16, 00:57:00,VALID,918.388,VALID,0,VALID,100,VALID,0,VALID,19.2285,VALID,141,VALID,0.550967,
2004-04-16, 00:58:00,VALID,918.349,VALID,0,VALID,100,VALID,0,VALID,19.2191,VALID,136,VALID,0.831771,
2004-04-16, 00:59:00,VALID,918.298,VALID,0,VALID,100,VALID,0,VALID,19.2022,VALID,134,VALID,1.16518,
2004-04-16, 01:00:00,VALID,918.27,VALID,0,VALID,100,VALID,0,VALID,19.2193,VALID,125,VALID,1.21657,
2004-04-16, 01:01:00,VALID,918.238,VALID,0,VALID,100,VALID,0,VALID,19.2055,VALID,112,VALID,0.793359,
2004-04-16, 01:02:00,VALID,918.212,VALID,0,VALID,100,VALID,-0.0169808,VALID,19.1963,VALID,113,VALID,0.65253,
2004-04-16, 01:03:00,VALID,918.185,VALID,0,VALID,100,VALID,0,VALID,19.2022,VALID,121,VALID,1.03106,
2004-04-16, 01:04:00,VALID,918.183,VALID,0,VALID,100,VALID,0,VALID,19.2318,VALID,119,VALID,0.892933,
2004-04-16, 01:05:00,VALID,918.164,VALID,0,VALID,100,VALID,0,VALID,19.2253,VALID,118,VALID,0.694754,
2004-04-16, 01:06:00,VALID,918.14,VALID,0,VALID,100,VALID,-0.0339617,VALID,19.2089,VALID,125,VALID,0.96689,
2004-04-16, 01:07:00,VALID,918.134,VALID,0,VALID,100,VALID,0.0169808,VALID,19.2315,VALID,132,VALID,1.10411,
2004-04-16, 01:08:00,VALID,918.114,VALID,0,VALID,100,VALID,0,VALID,19.2509,VALID,128,VALID,1.12482,
2004-04-16, 01:09:00,VALID,918.099,VALID,0,VALID,100,VALID,-0.0169808,VALID,19.2673,VALID,133,VALID,1.25074,
2004-04-16, 01:10:00,VALID,918.079,VALID,0,VALID,100,VALID,-0.0169808,VALID,19.2735,VALID,126,VALID,1.26847,
2004-04-16, 01:11:00,VALID,918.042,VALID,0,VALID,100,VALID,-0.0339617,VALID,19.2705,VALID,120,VALID,1.25744,
2004-04-16, 01:12:00,VALID,918.031,VALID,0,VALID,100,VALID,-0.0339617,VALID,19.2804,VALID,107,VALID,1.06436,
2004-04-16, 01:13:00,VALID,918.005,VALID,0,VALID,100,VALID,-0.0169808,VALID,19.2606,VALID,113,VALID,0.725586,
2004-04-16, 01:14:00,VALID,917.997,VALID,0,VALID,100,VALID,-0.0169808,VALID,19.2802,VALID,93,VALID,0.72066,
2004-04-16, 01:15:00,VALID,918.005,VALID,0,VALID,100,VALID,0,VALID,19.3192,VALID,104,VALID,0.900112,
2004-04-16, 01:16:00,VALID,918.005,VALID,0,VALID,100,VALID,-0.0339617,VALID,19.3418,VALID,112,VALID,1.03725,
2004-04-16, 01:17:00,VALID,918.017,VALID,0,VALID,100,VALID,0,VALID,19.3383,VALID,119,VALID,1.31827,
2004-04-16, 01:18:00,VALID,918.019,VALID,0,VALID,100,VALID,0,VALID,19.3189,VALID,121,VALID,1.36257,
2004-04-16, 01:19:00,VALID,917.997,VALID,0,VALID,100,VALID,0,VALID,19.2896,VALID,114,VALID,1.31374,
2004-04-16, 01:20:00,VALID,917.948,VALID,0,VALID,100,VALID,0.0339617,VALID,19.2641,VALID,108,VALID,0.783612,
2004-04-16, 01:21:00,VALID,917.911,VALID,0,VALID,100,VALID,0,VALID,19.274,VALID,121,VALID,1.28329,
2004-04-16, 01:22:00,VALID,917.866,VALID,0,VALID,100,VALID,0,VALID,19.2479,VALID,105,VALID,0.670833,
2004-04-16, 01:23:00,VALID,917.843,VALID,0,VALID,100,VALID,0,VALID,19.2382,VALID,93,VALID,0.741071,
2004-04-16, 01:24:00,VALID,917.824,VALID,0,VALID,100,VALID,0,VALID,19.2186,VALID,88,VALID,0.688021,
2004-04-16, 01:25:00,VALID,917.807,VALID,0,VALID,100,VALID,0.0339617,VALID,19.238,VALID,96,VALID,0.980755,
2004-04-16, 01:26:00,VALID,917.803,VALID,0,VALID,100,VALID,0,VALID,19.2415,VALID,101,VALID,0.905717,
2004-04-16, 01:27:00,VALID,917.794,VALID,0,VALID,100,VALID,0,VALID,19.2318,VALID,109,VALID,0.87064,
2004-04-16, 01:28:00,VALID,917.785,VALID,0,VALID,100,VALID,0,VALID,19.2387,VALID,101,VALID,1.09487,
2004-04-16, 01:29:00,VALID,917.775,VALID,0,VALID,100,VALID,-0.0169808,VALID,19.2218,VALID,97,VALID,0.850291,
2004-04-16, 01:30:00,VALID,917.75,VALID,0,VALID,100,VALID,0,VALID,19.2258,VALID,111,VALID,0.744792,
2004-04-16, 01:31:00,VALID,917.727,VALID,0,VALID,100,VALID,-0.0169808,VALID,19.196,VALID,92,VALID,0.686012,
2004-04-16, 01:32:00,VALID,917.72,VALID,0,VALID,100,VALID,0,VALID,19.1836,VALID,92,VALID,0.656064,
2004-04-16, 01:33:00,VALID,917.69,VALID,0,VALID,100,VALID,-0.0169808,VALID,19.1644,VALID,71,VALID,0.642987,
2004-04-16, 01:34:00,VALID,917.664,VALID,0,VALID,100,VALID,0.0169808,VALID,19.1414,VALID,115,VALID,1.06715,
2004-04-16, 01:35:00,VALID,917.646,VALID,0,VALID,100,VALID,0.0169808,VALID,19.1453,VALID,103,VALID,0.990552,
2004-04-16, 01:36:00,VALID,917.617,VALID,0,VALID,100,VALID,0,VALID,19.1322,VALID,91,VALID,0.776172,
2004-04-16, 01:37:00,VALID,917.609,VALID,0,VALID,100,VALID,0,VALID,19.1255,VALID,91,VALID,0.872523,
2004-04-16, 01:38:00,VALID,917.605,VALID,0,VALID,100,VALID,-0.0169808,VALID,19.1319,VALID,113,VALID,0.946766,
2004-04-16, 01:39:00,VALID,917.612,VALID,0,VALID,100,VALID,-0.0509425,VALID,19.1255,VALID,124,VALID,1.21504,
2004-04-16, 01:40:00,VALID,917.601,VALID,0,VALID,100,VALID,0,VALID,19.1292,VALID,126,VALID,1.02572,
2004-04-16, 01:41:00,VALID,917.592,VALID,0,VALID,100,VALID,0,VALID,19.1222,VALID,127,VALID,1.01935,
2004-04-16, 01:42:00,VALID,917.6,VALID,0,VALID,100,VALID,-0.0339617,VALID,19.1418,VALID,123,VALID,1.11105,
2004-04-16, 01:43:00,VALID,917.605,VALID,0,VALID,100,VALID,0,VALID,19.1347,VALID,135,VALID,0.731445,
2004-04-16, 01:44:00,VALID,917.615,VALID,0,VALID,100,VALID,0.0169808,VALID,19.1384,VALID,136,VALID,0.81468,
2004-04-16, 01:45:00,VALID,917.609,VALID,0,VALID,100,VALID,0,VALID,19.1188,VALID,149,VALID,0.988889,
2004-04-16, 01:46:00,VALID,917.594,VALID,0,VALID,100,VALID,0,VALID,19.0991,VALID,142,VALID,0.970508,
2004-04-16, 01:47:00,VALID,917.593,VALID,0,VALID,100,VALID,-0.0169808,VALID,19.0775,VALID,129,VALID,0.731076,
2004-04-16, 01:48:00,VALID,917.572,VALID,0,VALID,100,VALID,0.0339617,VALID,19.0602,VALID,136,VALID,0.927539,
2004-04-16, 01:49:00,VALID,917.555,VALID,0,VALID,100,VALID,0,VALID,19.0609,VALID,126,VALID,0.946948,
2004-04-16, 01:50:00,VALID,917.536,VALID,0,VALID,100,VALID,0.0169808,VALID,19.0417,VALID,112,VALID,0.852325,
2004-04-16, 01:51:00,VALID,917.506,VALID,0,VALID,100,VALID,0,VALID,19.045,VALID,109,VALID,0.663154,
2004-04-16, 01:52:00,VALID,917.466,VALID,0,VALID,100,VALID,0,VALID,19.0249,VALID,82,VALID,0.524581,
2004-04-16, 01:53:00,VALID,917.439,VALID,0,VALID,100,VALID,0,VALID,19.0353,VALID,81,VALID,0.346701,
2004-04-16, 01:54:00,VALID,917.411,VALID,0,VALID,100,VALID,0,VALID,19.042,VALID,86,VALID,0.401414,
2004-04-16, 01:55:00,VALID,917.396,VALID,0,VALID,100,VALID,0,VALID,19.0644,VALID,94,VALID,0.533333,
2004-04-16, 01:56:00,VALID,917.396,VALID,0,VALID,100,VALID,0,VALID,19.0835,VALID,94,VALID,0.280488,
2004-04-16, 01:57:00,VALID,917.393,VALID,0,VALID,100,VALID,0.0169808,VALID,19.0763,VALID,94,VALID,0.341273,
2004-04-16, 01:58:00,VALID,917.388,VALID,0,VALID,100,VALID,0.0169808,VALID,19.0773,VALID,92,VALID,0.446801,
2004-04-16, 01:59:00,VALID,917.375,VALID,0,VALID,100,VALID,0,VALID,19.0544,VALID,85,VALID,0.521391,
2004-04-16, 02:00:00,VALID,917.368,VALID,0,VALID,100,VALID,0.0169808,VALID,19.0258,VALID,76,VALID,0.742569,
2004-04-16, 02:01:00,VALID,917.343,VALID,0,VALID,100,VALID,0.0339617,VALID,18.9963,VALID,65,VALID,0.609375,
2004-04-16, 02:02:00,VALID,917.317,VALID,0,VALID,100,VALID,0.0169808,VALID,18.964,VALID,63,VALID,0.606712,
2004-04-16, 02:03:00,VALID,917.293,VALID,0,VALID,100,VALID,0,VALID,18.9647,VALID,63,VALID,0.587536,
2004-04-16, 02:04:00,VALID,917.264,VALID,0,VALID,100,VALID,0.0169808,VALID,18.9513,VALID,63,VALID,0.744792,
2004-04-16, 02:05:00,VALID,917.246,VALID,0,VALID,100,VALID,-0.0169808,VALID,18.9871,VALID,71,VALID,0.840216,
2004-04-16, 02:06:00,VALID,917.25,VALID,0,VALID,100,VALID,0,VALID,19.0256,VALID,69,VALID,0.803597,
2004-04-16, 02:07:00,VALID,917.238,VALID,0,VALID,100,VALID,-0.0169808,VALID,19.0286,VALID,95,VALID,0.879925,
2004-04-16, 02:08:00,VALID,917.243,VALID,0,VALID,100,VALID,0,VALID,19.0256,VALID,119,VALID,0.838224,
2004-04-16, 02:09:00,VALID,917.243,VALID,0,VALID,100,VALID,-0.0169808,VALID,19.0062,VALID,129,VALID,1.1548,
2004-04-16, 02:10:00,VALID,917.224,VALID,0,VALID,100,VALID,-0.0169808,VALID,19.0134,VALID,131,VALID,0.966667,
2004-04-16, 02:11:00,VALID,917.224,VALID,0,VALID,100,VALID,0,VALID,18.967,VALID,134,VALID,0.987351,
2004-04-16, 02:12:00,VALID,917.225,VALID,0,VALID,100,VALID,-0.0169808,VALID,18.935,VALID,134,VALID,1.08757,
2004-04-16, 02:13:00,VALID,917.221,VALID,0,VALID,100,VALID,-0.101885,VALID,18.914,VALID,136,VALID,1.08315,
2004-04-16, 02:14:00,VALID,917.21,VALID,0,VALID,100,VALID,-0.0509425,VALID,18.9041,VALID,147,VALID,1.23344,
2004-04-16, 02:15:00,VALID,917.204,VALID,0,VALID,100,VALID,-0.118866,VALID,18.9143,VALID,139,VALID,0.899414,
2004-04-16, 02:16:00,VALID,917.177,VALID,0,VALID,100,VALID,-0.101885,VALID,18.924,VALID,142,VALID,1.10918,
2004-04-16, 02:17:00,VALID,917.155,VALID,0,VALID,100,VALID,-0.0679233,VALID,18.9225,VALID,149,VALID,0.940104,
2004-04-16, 02:18:00,VALID,917.137,VALID,0,VALID,100,VALID,0.0169808,VALID,18.9347,VALID,137,VALID,1.1686,
2004-04-16, 02:19:00,VALID,917.132,VALID,0,VALID,100,VALID,0,VALID,18.9576,VALID,134,VALID,1.15749,
2004-04-16, 02:20:00,VALID,917.141,VALID,0,VALID,100,VALID,0,VALID,18.9608,VALID,143,VALID,0.685369,
2004-04-16, 02:21:00,VALID,917.146,VALID,0,VALID,100,VALID,0.0169808,VALID,18.9707,VALID,152,VALID,1.10714,
2004-04-16, 02:22:00,VALID,917.146,VALID,0,VALID,100,VALID,0.0169808,VALID,18.9772,VALID,153,VALID,1.6161,
2004-04-16, 02:23:00,VALID,917.151,VALID,0,VALID,100,VALID,0.0169808,VALID,18.9936,VALID,159,VALID,1.00981,
2004-04-16, 02:24:00,VALID,917.142,VALID,0,VALID,100,VALID,-0.0169808,VALID,19.003,VALID,150,VALID,1.32685,
2004-04-16, 02:25:00,VALID,917.146,VALID,0,VALID,100,VALID,0,VALID,19.0032,VALID,153,VALID,1.1782,
2004-04-16, 02:26:00,VALID,917.135,VALID,0,VALID,100,VALID,0,VALID,19.0159,VALID,154,VALID,1.07124,
2004-04-16, 02:27:00,VALID,917.145,VALID,0,VALID,100,VALID,0,VALID,19.0323,VALID,151,VALID,0.899414,
2004-04-16, 02:28:00,VALID,917.14,VALID,0,VALID,100,VALID,0,VALID,19.0323,VALID,157,VALID,0.672783,
2004-04-16, 02:29:00,VALID,917.118,VALID,0,VALID,100,VALID,0,VALID,19.0288,VALID,174,VALID,0.729861,
2004-04-16, 02:30:00,VALID,917.128,VALID,0,VALID,100,VALID,0,VALID,19.0258,VALID,143,VALID,0.547763,
2004-04-16, 02:31:00,VALID,917.132,VALID,0,VALID,100,VALID,-0.0169808,VALID,19.0388,VALID,124,VALID,0.52846,
2004-04-16, 02:32:00,VALID,917.146,VALID,0,VALID,100,VALID,0.0169808,VALID,18.9871,VALID,134,VALID,0.698103,
2004-04-16, 02:33:00,VALID,917.149,VALID,0,VALID,100,VALID,0.0169808,VALID,18.9449,VALID,139,VALID,0.605755,
2004-04-16, 02:34:00,VALID,917.157,VALID,0,VALID,100,VALID,0,VALID,18.9546,VALID,135,VALID,1.3363,
2004-04-16, 02:35:00,VALID,917.156,VALID,0,VALID,100,VALID,0,VALID,19.0254,VALID,152,VALID,1.59449,
2004-04-16, 02:36:00,VALID,917.162,VALID,0,VALID,100,VALID,0,VALID,19.0616,VALID,146,VALID,1.04723,
2004-04-16, 02:37:00,VALID,917.168,VALID,0,VALID,100,VALID,0,VALID,19.0606,VALID,146,VALID,0.878089,
2004-04-16, 02:38:00,VALID,917.178,VALID,0,VALID,100,VALID,0,VALID,19.0547,VALID,151,VALID,1.43887,
2004-04-16, 02:39:00,VALID,917.188,VALID,0,VALID,100,VALID,0,VALID,19.0385,VALID,141,VALID,1.2885,
2004-04-16, 02:40:00,VALID,917.193,VALID,0,VALID,100,VALID,-0.0169808,VALID,19.0254,VALID,142,VALID,2.07564,
2004-04-16, 02:41:00,VALID,917.192,VALID,0,VALID,100,VALID,0,VALID,19.0547,VALID,133,VALID,1.90091,
2004-04-16, 02:42:00,VALID,917.194,VALID,0,VALID,100,VALID,-0.0169808,VALID,19.0477,VALID,141,VALID,1.85447,
2004-04-16, 02:43:00,VALID,917.188,VALID,0,VALID,100,VALID,0,VALID,19.0708,VALID,141,VALID,2.3185,
2004-04-16, 02:44:00,VALID,917.186,VALID,0,VALID,100,VALID,0,VALID,19.0768,VALID,147,VALID,2.10826,
2004-04-16, 02:45:00,VALID,917.19,VALID,0,VALID,100,VALID,0,VALID,19.1031,VALID,146,VALID,1.68306,
2004-04-16, 02:46:00,VALID,917.175,VALID,0,VALID,100,VALID,0,VALID,19.1031,VALID,144,VALID,2.30621,
2004-04-16, 02:47:00,VALID,917.182,VALID,0,VALID,100,VALID,0,VALID,19.1158,VALID,135,VALID,1.95332,
2004-04-16, 02:48:00,VALID,917.178,VALID,0,VALID,100,VALID,0.0169808,VALID,19.1026,VALID,134,VALID,1.72781,
2004-04-16, 02:49:00,VALID,917.18,VALID,0.2,VALID,100,VALID,0,VALID,19.1163,VALID,135,VALID,1.79972,
2004-04-16, 02:50:00,VALID,917.181,VALID,0,VALID,100,VALID,0,VALID,19.1033,VALID,140,VALID,1.72805,
2004-04-16, 02:51:00,VALID,917.173,VALID,0,VALID,100,VALID,0,VALID,19.1096,VALID,126,VALID,1.41051,
2004-04-16, 02:52:00,VALID,917.168,VALID,0,VALID,100,VALID,-0.0169808,VALID,19.1031,VALID,139,VALID,1.86111,
2004-04-16, 02:53:00,VALID,917.162,VALID,0,VALID,100,VALID,0,VALID,19.113,VALID,115,VALID,1.9233,
2004-04-16, 02:54:00,VALID,917.174,VALID,0,VALID,100,VALID,0.0339617,VALID,19.0902,VALID,112,VALID,1.49201,
2004-04-16, 02:55:00,VALID,917.179,VALID,0,VALID,100,VALID,0.0169808,VALID,19.084,VALID,116,VALID,1.06268,
2004-04-16, 02:56:00,VALID,917.18,VALID,0,VALID,100,VALID,0,VALID,19.0807,VALID,124,VALID,1.84109,
2004-04-16, 02:57:00,VALID,917.196,VALID,0,VALID,100,VALID,0,VALID,19.0708,VALID,117,VALID,1.33041,
2004-04-16, 02:58:00,VALID,917.201,VALID,0,VALID,100,VALID,0.0169808,VALID,19.0706,VALID,133,VALID,1.52772,
2004-04-16, 02:59:00,VALID,917.205,VALID,0,VALID,100,VALID,0,VALID,19.0579,VALID,125,VALID,1.258,
2004-04-16, 03:00:00,VALID,917.202,VALID,0,VALID,100,VALID,0,VALID,19.0445,VALID,125,VALID,1.24219,
2004-04-16, 03:01:00,VALID,917.199,VALID,0,VALID,100,VALID,0.0339617,VALID,19.0383,VALID,103,VALID,0.945685,
2004-04-16, 03:02:00,VALID,917.205,VALID,0,VALID,100,VALID,0,VALID,19.0099,VALID,133,VALID,0.74949,
2004-04-16, 03:03:00,VALID,917.204,VALID,0,VALID,100,VALID,-0.0679233,VALID,19.0102,VALID,122,VALID,1.0199,
2004-04-16, 03:04:00,VALID,917.198,VALID,0,VALID,100,VALID,-0.0679233,VALID,19.0206,VALID,117,VALID,1.15396,
2004-04-16, 03:05:00,VALID,917.201,VALID,0,VALID,100,VALID,-0.0679233,VALID,19.0072,VALID,121,VALID,0.917039,
2004-04-16, 03:06:00,VALID,917.181,VALID,0,VALID,100,VALID,-0.0509425,VALID,19.0074,VALID,115,VALID,1.20182,
2004-04-16, 03:07:00,VALID,917.179,VALID,0,VALID,100,VALID,-0.0339617,VALID,19.001,VALID,105,VALID,1.10119,
2004-04-16, 03:08:00,VALID,917.177,VALID,0,VALID,100,VALID,-0.0849042,VALID,18.9915,VALID,89,VALID,1.18819,
2004-04-16, 03:09:00,VALID,917.166,VALID,0,VALID,100,VALID,-0.0849042,VALID,18.953,VALID,45,VALID,1.49004,
2004-04-16, 03:10:00,VALID,917.173,VALID,0,VALID,100,VALID,-0.0849042,VALID,18.9269,VALID,40,VALID,1.41661,
2004-04-16, 03:11:00,VALID,917.168,VALID,0,VALID,100,VALID,-0.101885,VALID,18.8944,VALID,51,VALID,1.14234,
2004-04-16, 03:12:00,VALID,917.176,VALID,0,VALID,100,VALID,-0.0509425,VALID,18.9014,VALID,87,VALID,1.10011,
2004-04-16, 03:13:00,VALID,917.173,VALID,0,VALID,100,VALID,-0.0679233,VALID,18.8942,VALID,113,VALID,1.11476,
2004-04-16, 03:14:00,VALID,917.174,VALID,0,VALID,100,VALID,-0.0679233,VALID,18.8942,VALID,129,VALID,1.02859,
2004-04-16, 03:15:00,VALID,917.176,VALID,0,VALID,100,VALID,-0.0339617,VALID,18.9106,VALID,135,VALID,1.15625,
2004-04-16, 03:16:00,VALID,917.176,VALID,0,VALID,100,VALID,-0.0339617,VALID,18.9299,VALID,130,VALID,0.824219,
2004-04-16, 03:17:00,VALID,917.181,VALID,0,VALID,100,VALID,-0.0509425,VALID,18.9334,VALID,123,VALID,0.733445,
2004-04-16, 03:18:00,VALID,917.185,VALID,0,VALID,100,VALID,-0.0169808,VALID,18.9202,VALID,122,VALID,0.327172,
2004-04-16, 03:19:00,VALID,917.181,VALID,0,VALID,100,VALID,-0.0679233,VALID,18.9036,VALID,122,VALID,0.100109,
2004-04-16, 03:20:00,VALID,917.176,VALID,0,VALID,100,VALID,-0.0169808,VALID,18.9041,VALID,50,VALID,0.462891,
2004-04-16, 03:21:00,VALID,917.17,VALID,0,VALID,100,VALID,-0.0849042,VALID,18.8783,VALID,26,VALID,0.368459,
2004-04-16, 03:22:00,VALID,917.176,VALID,0,VALID,100,VALID,-0.0679233,VALID,18.8495,VALID,26,VALID,0.127287,
2004-04-16, 03:23:00,VALID,917.188,VALID,0,VALID,100,VALID,-0.0679233,VALID,18.8361,VALID,26,VALID,0.00213068,
2004-04-16, 03:24:00,VALID,917.208,VALID,0,VALID,100,VALID,-0.0679233,VALID,18.8529,VALID,26,VALID,0.000868056,
2004-04-16, 03:25:00,VALID,917.224,VALID,0,VALID,100,VALID,-0.0679233,VALID,18.8691,VALID,26,VALID,0,
2004-04-16, 03:26:00,VALID,917.247,VALID,0,VALID,100,VALID,-0.0849042,VALID,18.8587,VALID,26,VALID,0.00999273,
2004-04-16, 03:27:00,VALID,917.258,VALID,0,VALID,100,VALID,-0.0679233,VALID,18.849,VALID,26,VALID,0.0592949,
2004-04-16, 03:28:00,VALID,917.279,VALID,0,VALID,100,VALID,-0.101885,VALID,18.8236,VALID,26,VALID,0.219727,
2004-04-16, 03:29:00,VALID,917.283,VALID,0,VALID,100,VALID,-0.0509425,VALID,18.7846,VALID,27,VALID,0.326705,
2004-04-16, 03:30:00,VALID,917.273,VALID,0,VALID,100,VALID,-0.0509425,VALID,18.7948,VALID,27,VALID,0.296148,
2004-04-16, 03:31:00,VALID,917.272,VALID,0,VALID,100,VALID,-0.0849042,VALID,18.7784,VALID,27,VALID,0.503997,
2004-04-16, 03:32:00,VALID,917.259,VALID,0,VALID,100,VALID,-0.0509425,VALID,18.759,VALID,29,VALID,0.602965,
2004-04-16, 03:33:00,VALID,917.26,VALID,0,VALID,100,VALID,-0.0679233,VALID,18.7556,VALID,40,VALID,0.672433,
2004-04-16, 03:34:00,VALID,917.264,VALID,0,VALID,100,VALID,-0.0169808,VALID,18.7487,VALID,40,VALID,0.520647,
2004-04-16, 03:35:00,VALID,917.247,VALID,0,VALID,100,VALID,-0.0169808,VALID,18.7355,VALID,40,VALID,0.441051,
2004-04-16, 03:36:00,VALID,917.243,VALID,0,VALID,100,VALID,-0.0509425,VALID,18.7722,VALID,41,VALID,0.33647,
2004-04-16, 03:37:00,VALID,917.224,VALID,0,VALID,100,VALID,-0.0339617,VALID,18.8174,VALID,44,VALID,0.214844,
2004-04-16, 03:38:00,VALID,917.2,VALID,0,VALID,100,VALID,-0.0339617,VALID,18.8428,VALID,44,VALID,0.0319767,
2004-04-16, 03:39:00,VALID,917.192,VALID,0,VALID,100,VALID,-0.0509425,VALID,18.8497,VALID,44,VALID,0.429861,
2004-04-16, 03:40:00,VALID,917.176,VALID,0,VALID,100,VALID,-0.0339617,VALID,18.7939,VALID,38,VALID,0.757241,
2004-04-16, 03:41:00,VALID,917.142,VALID,0,VALID,100,VALID,-0.0509425,VALID,18.7459,VALID,35,VALID,0.739025,
2004-04-16, 03:42:00,VALID,917.135,VALID,0,VALID,100,VALID,-0.0679233,VALID,18.7039,VALID,35,VALID,0.906994,
2004-04-16, 03:43:00,VALID,917.107,VALID,0,VALID,100,VALID,-0.0339617,VALID,18.6917,VALID,40,VALID,0.951637,
2004-04-16, 03:44:00,VALID,917.09,VALID,0,VALID,100,VALID,-0.0509425,VALID,18.6947,VALID,44,VALID,0.945685,